This is the latest recevied weather packets stored in our database for station/object N2XP-3. If no packets are shown the sender has not sent any weather packets the latest 10 day(s).
| Time | Temp. | Humidity | Pressure | Rain* | Wind** | Luminosity | Snow |
|---|---|---|---|---|---|---|---|
| 1777722582 | 10.56° C | 88% | 1009.7 hPa | 0 mm | 1.34 m/s, 148° | - | - |
| 1777722279 | 10.56° C | 88% | 1009.8 hPa | 0 mm | 2.24 m/s, 65° | - | - |
| 1777721976 | 11.67° C | 87% | 1009.8 hPa | 0 mm | 1.79 m/s, 107° | - | - |
| 1777721673 | 12.78° C | 85% | 1009.9 hPa | 0 mm | 0 m/s | - | - |
| 1777721371 | 13.89° C | 86% | 1009.8 hPa | 0 mm | 0 m/s | - | - |
| 1777721135 | 13.89° C | 91% | 1009.7 hPa | 0 mm | 0 m/s | - | - |
| 1777721067 | 13.89° C | 91% | 1009.7 hPa | 0 mm | 0 m/s | - | - |
| 1777720464 | 12.22° C | 97% | 1009.7 hPa | 0 mm | 0 m/s | - | - |
| 1777720159 | 10.56° C | 100% | 1009.6 hPa | 0 mm | 0 m/s | - | - |
| 1777719857 | 8.89° C | 99% | 1009.5 hPa | 0 mm | 0 m/s | - | - |
| 1777719558 | 8.33° C | 99% | 1009.5 hPa | 0 mm | 0 m/s | - | - |
| 1777719248 | 8.33° C | 98% | 1009.5 hPa | 0 mm | 0 m/s | - | - |
| 1777718948 | 7.78° C | 98% | 1009.6 hPa | 0 mm | 0 m/s | - | - |
| 1777718636 | 7.78° C | 98% | 1009.5 hPa | 0 mm | 0 m/s | - | - |
| 1777718330 | 7.78° C | 98% | 1009.5 hPa | 0 mm | 0 m/s | - | - |
| 1777718030 | 7.22° C | 98% | 1009.4 hPa | 0 mm | 0 m/s | - | - |
| 1777717731 | 7.22° C | 97% | 1009.2 hPa | 0 mm | 0 m/s | - | - |
| 1777717424 | 7.22° C | 97% | 1009.1 hPa | 0 mm | 0 m/s | - | - |
| 1777716512 | 7.22° C | 97% | 1009.1 hPa | 0 mm | 0 m/s | - | - |
| 1777716210 | 6.67° C | 96% | 1008.9 hPa | 0 mm | 0 m/s | - | - |
| 1777715911 | 7.22° C | 96% | 1008.9 hPa | 0 mm | 0 m/s | - | - |
| 1777715605 | 7.22° C | 96% | 1008.8 hPa | 0 mm | 0 m/s | - | - |
| 1777714695 | 7.22° C | 95% | 1008.6 hPa | 0 mm | 0 m/s | - | - |
| 1777714396 | 7.78° C | 95% | 1008.6 hPa | 0 mm | 0 m/s | - | - |
| 1777714096 | 7.78° C | 95% | 1008.5 hPa | 0 mm | 0 m/s | - | - |
* Rain latest hour (hover to see other rain measurements)
** Current wind speed in m/s (hover to see current wind gust speed)